"Period start","avg(HW err(1)/warn(2) (#))","avg(Visibility (m))","avg(Weather code (#))","avg(Precip intensity (mm/h))","min(HW err(1)/warn(2) (#))","max(HW err(1)/warn(2) (#))","std(HW err(1)/warn(2) (#))","med(HW err(1)/warn(2) (#))","min(Visibility (m))","max(Visibility (m))","std(Visibility (m))","med(Visibility (m))","min(Weather code (#))","max(Weather code (#))","std(Weather code (#))","med(Weather code (#))","min(Precip intensity (mm/h))","max(Precip intensity (mm/h))","std(Precip intensity (mm/h))","med(Precip intensity (mm/h))"
2017-12-09 00:00:00,2,13224,74,0.06,2,2,0,2,7680,18682,4114,14129,71,77,3,74,0.05,0.10,0.02,0.05
2017-12-09 00:10:00,2,14234,74,0.07,2,2,0,2,11467,17458,1911,14394,71,77,3,74,0.05,0.10,0.02,0.05
2017-12-09 00:20:00,2,12851,74,0.06,2,2,0,2,5731,19171,4155,13017,71,77,3,74,0.00,0.10,0.03,0.05
2017-12-09 00:30:00,2,8647,74,0.04,2,2,0,2,4718,12745,2669,9444,71,77,3,74,0.00,0.10,0.03,0.05
2017-12-09 00:40:00,2,9839,74,0.06,2,2,0,2,6698,12842,2144,9477,71,77,3,74,0.05,0.10,0.02,0.05
2017-12-09 00:50:00,2,8202,74,0.05,2,2,0,2,5231,11727,1855,8359,71,77,3,74,0.00,0.10,0.02,0.05
2017-12-09 01:00:00,2,8272,74,0.08,2,2,0,2,6236,10721,1399,8258,71,77,3,74,0.05,0.15,0.03,0.08
2017-12-09 01:10:00,2,6658,76,0.35,2,2,0,2,5372,10079,1480,6136,71,77,2,77,0.15,0.55,0.13,0.35
2017-12-09 01:20:00,2,6197,76,0.45,2,2,0,2,4700,8725,1146,5919,71,77,2,77,0.10,0.75,0.22,0.53
2017-12-09 01:30:00,2,7129,74,0.05,2,2,0,2,3977,8719,1545,7551,71,77,3,77,0.00,0.10,0.02,0.05
2017-12-09 01:40:00,2,9060,31,0.00,2,2,0,2,6125,11918,1835,9481,10,77,30,10,0.00,0.00,0.00,0.00
2017-12-09 01:50:00,2,14622,8,0.00,2,2,0,2,9237,25411,4721,13375,0,10,4,10,0.00,0.00,0.00,0.00
2017-12-09 02:00:00,2,22661,0,0.00,2,2,0,2,12491,39122,6991,21380,0,0,0,0,0.00,0.00,0.00,0.00
2017-12-09 02:10:00,2,43180,0,0.00,2,2,0,2,34499,50000,4891,42008,0,0,0,0,0.00,0.00,0.00,0.00
2017-12-09 02:20:00,2,34560,0,0.00,2,2,0,2,24213,43270,5372,36455,0,0,0,0,0.00,0.00,0.00,0.00
2017-12-09 02:30:00,2,8805,68,0.07,2,2,0,2,5646,14654,2762,7731,0,77,23,77,0.00,0.10,0.03,0.05
2017-12-09 02:40:00,2,19844,77,0.07,2,2,0,2,13896,26576,3946,19342,77,77,0,77,0.05,0.10,0.02,0.05
2017-12-09 02:50:00,2,11204,77,0.15,2,2,0,2,9770,12167,743,11322,77,77,0,77,0.10,0.25,0.04,0.15
2017-12-09 03:00:00,2,10464,77,0.12,2,2,0,2,7912,13491,1837,10829,77,77,0,77,0.10,0.20,0.03,0.10
2017-12-09 03:10:00,2,9603,77,0.12,2,2,0,2,7807,11429,1171,9873,77,77,0,77,0.10,0.15,0.02,0.12
2017-12-09 03:20:00,2,9515,77,0.12,2,2,0,2,6029,16578,3523,8284,77,77,0,77,0.10,0.15,0.02,0.10
2017-12-09 03:30:00,2,23372,77,0.06,2,2,0,2,9590,38760,9382,22580,77,77,0,77,0.05,0.10,0.02,0.05
2017-12-09 03:40:00,2,20068,77,0.09,2,2,0,2,10809,37955,8487,17168,77,77,0,77,0.05,0.15,0.03,0.10
2017-12-09 03:50:00,2,17291,77,0.09,2,2,0,2,12019,24750,4027,16162,77,77,0,77,0.05,0.15,0.03,0.10
2017-12-09 04:00:00,2,13952,77,0.10,2,2,0,2,11190,17783,2451,12877,77,77,0,77,0.05,0.15,0.03,0.10
2017-12-09 04:10:00,2,17594,77,0.08,2,2,0,2,11074,24712,3775,17236,77,77,0,77,0.05,0.15,0.04,0.08
2017-12-09 04:20:00,2,12474,77,0.14,2,2,0,2,8740,15302,2202,12952,77,77,0,77,0.05,0.25,0.08,0.12
2017-12-09 04:30:00,2,12277,77,0.10,2,2,0,2,11049,14282,865,12116,77,77,0,77,0.05,0.15,0.03,0.10
2017-12-09 04:40:00,2,10165,77,0.12,2,2,0,2,7934,13317,1593,9460,77,77,0,77,0.05,0.20,0.04,0.12
2017-12-09 04:50:00,2,9281,77,0.08,2,2,0,2,7519,10996,1186,9183,77,77,0,77,0.05,0.15,0.03,0.08
2017-12-09 05:00:00,2,10844,77,0.06,2,2,0,2,9227,14533,1639,10576,77,77,0,77,0.05,0.10,0.02,0.05
2017-12-09 05:10:00,2,10946,77,0.04,2,2,0,2,8153,13981,2010,11096,77,77,0,77,0.00,0.10,0.03,0.05
2017-12-09 05:20:00,2,10068,77,0.04,2,2,0,2,7425,14635,1946,9651,77,77,0,77,0.00,0.05,0.02,0.05
2017-12-09 05:30:00,2,9378,77,0.04,2,2,0,2,8131,11621,1058,8904,77,77,0,77,0.00,0.10,0.03,0.05
2017-12-09 05:40:00,2,10005,77,0.05,2,2,0,2,7650,12335,1490,9878,77,77,0,77,0.00,0.15,0.04,0.05
2017-12-09 05:50:00,2,7489,77,0.07,2,2,0,2,6641,8261,529,7450,77,77,0,77,0.05,0.15,0.03,0.05
2017-12-09 06:00:00,2,6421,77,0.18,2,2,0,2,4057,9409,1679,6160,77,77,0,77,0.05,0.45,0.15,0.12
2017-12-09 06:10:00,2,7207,76,0.09,2,2,0,2,5636,9165,1020,7337,71,78,3,77,0.05,0.15,0.04,0.10
2017-12-09 06:20:00,2,8634,78,0.06,2,2,0,2,6419,10519,1136,8699,77,78,0,78,0.00,0.10,0.03,0.05
2017-12-09 06:30:00,2,6640,76,0.12,2,2,0,2,4911,9847,1529,6566,71,78,3,78,0.05,0.25,0.07,0.08
2017-12-09 06:40:00,2,6289,78,0.13,2,2,0,2,5246,7951,813,5986,78,78,0,78,0.05,0.25,0.05,0.12
2017-12-09 06:50:00,2,5621,77,0.14,2,2,0,2,3546,8655,1532,5442,77,78,0,77,0.05,0.40,0.11,0.10
2017-12-09 07:00:00,2,11089,77,0.03,2,2,0,2,8493,12541,1081,11401,77,77,0,77,0.00,0.05,0.02,0.05
2017-12-09 07:10:00,2,10255,77,0.03,2,2,0,2,7741,12192,1535,10786,77,77,0,77,0.00,0.05,0.03,0.03
2017-12-09 07:20:00,2,5652,77,0.05,2,2,0,2,4140,9273,1571,5014,77,77,0,77,0.05,0.05,0.00,0.05
2017-12-09 07:30:00,2,10873,77,0.12,2,2,0,2,9775,12002,631,10696,77,77,0,77,0.05,0.20,0.07,0.10
2017-12-09 07:40:00,2,14621,77,0.07,2,2,0,2,12817,17015,1453,14552,77,77,0,77,0.05,0.10,0.02,0.05
2017-12-09 07:50:00,2,16262,77,0.06,2,2,0,2,13686,18926,1756,16490,77,77,0,77,0.05,0.10,0.02,0.05
2017-12-09 08:00:00,2,22170,74,0.04,2,2,0,2,13859,35099,5596,21686,71,77,3,74,0.00,0.05,0.02,0.05
2017-12-09 08:10:00,2,24478,75,0.04,2,2,0,2,19784,29657,3128,24787,71,77,3,77,0.00,0.10,0.03,0.05
2017-12-09 08:20:00,2,18644,73,0.04,2,2,0,2,14776,23244,2571,18540,71,77,3,71,0.00,0.05,0.02,0.05
2017-12-09 08:30:00,2,12751,37,0.01,2,2,0,2,6551,23707,5751,9703,0,77,37,36,0.00,0.05,0.02,0.00
2017-12-09 08:40:00,2,7533,74,0.00,2,2,0,2,5812,9396,1115,7385,71,77,3,74,0.00,0.00,0.00,0.00
2017-12-09 08:50:00,2,6184,74,0.00,2,2,0,2,4247,9071,1614,5844,71,77,3,74,0.00,0.00,0.00,0.00
2017-12-09 09:00:00,2,2983,74,0.17,2,2,0,2,1391,4061,872,3014,71,77,3,74,0.00,0.50,0.14,0.15
2017-12-09 09:10:00,2,4145,74,0.03,2,2,0,2,2333,6407,1086,4126,71,77,3,74,0.00,0.15,0.05,0.00
2017-12-09 09:20:00,2,3844,74,0.03,2,2,0,2,1765,5420,1132,3982,71,77,3,74,0.00,0.10,0.03,0.03
2017-12-09 09:30:00,2,2987,74,0.05,2,2,0,2,1129,4918,1238,3034,71,77,3,74,0.00,0.10,0.03,0.05
2017-12-09 09:40:00,2,1667,74,0.11,2,2,0,2,1147,2685,500,1518,71,77,3,74,0.05,0.25,0.07,0.10
2017-12-09 09:50:00,2,1828,75,0.19,2,2,0,2,920,3251,701,1610,71,77,3,77,0.05,0.70,0.21,0.08
2017-12-09 10:00:00,2,2451,73,0.10,2,2,0,2,1444,3351,544,2380,71,77,3,71,0.05,0.15,0.04,0.10
2017-12-09 10:10:00,2,2481,75,0.20,2,2,0,2,1949,3012,423,2321,71,77,3,77,0.05,0.35,0.10,0.23
2017-12-09 10:20:00,2,2391,77,0.45,2,2,0,2,1641,2723,297,2397,77,77,0,77,0.25,1.25,0.28,0.35
2017-12-09 10:30:00,2,3468,77,0.76,2,2,0,2,1281,5416,1499,3025,77,77,0,77,0.10,2.50,0.73,0.55
2017-12-09 10:40:00,2,4518,74,0.14,2,2,0,2,3432,5244,541,4586,71,77,3,74,0.10,0.20,0.04,0.12
2017-12-09 10:50:00,2,3122,75,0.17,2,2,0,2,1942,4085,746,3252,71,77,3,77,0.05,0.40,0.09,0.15
2017-12-09 11:00:00,2,3633,73,0.14,2,2,0,2,2937,4227,387,3659,71,77,3,71,0.10,0.20,0.03,0.15
2017-12-09 11:10:00,2,3821,76,0.18,2,2,0,2,3140,4407,404,3991,71,77,2,77,0.05,0.35,0.10,0.15
2017-12-09 11:20:00,2,6875,56,0.04,2,2,0,2,4347,10352,2088,6867,10,77,30,74,0.00,0.20,0.07,0.00
2017-12-09 11:30:00,2,6392,10,0.00,2,2,0,2,4643,9908,1684,5878,10,10,0,10,0.00,0.00,0.00,0.00
2017-12-09 11:40:00,2,5438,10,0.00,2,2,0,2,2696,8098,1488,5884,10,10,0,10,0.00,0.00,0.00,0.00
2017-12-09 11:50:00,2,3543,16,0.00,2,2,0,2,2786,4452,441,3530,10,71,18,10,0.00,0.00,0.00,0.00
2017-12-09 12:00:00,2,2303,76,0.22,2,2,0,2,1873,2769,295,2332,71,77,2,77,0.15,0.35,0.06,0.20
2017-12-09 12:10:00,2,2838,77,0.30,2,2,0,2,2215,3475,391,2778,77,77,0,77,0.10,0.50,0.14,0.33
2017-12-09 12:20:00,2,3187,77,0.33,2,2,0,2,2534,4291,536,2974,77,77,0,77,0.15,0.45,0.08,0.35
2017-12-09 12:30:00,2,3379,77,0.33,2,2,0,2,2880,4008,346,3303,77,77,0,77,0.25,0.40,0.06,0.33
2017-12-09 12:40:00,2,3726,77,0.23,2,2,0,2,2832,4417,436,3710,77,77,0,77,0.15,0.35,0.06,0.20
2017-12-09 12:50:00,2,4930,77,0.20,2,2,0,2,4133,5709,618,5202,77,77,0,77,0.15,0.30,0.04,0.20
2017-12-09 13:00:00,2,5417,77,0.18,2,2,0,2,4617,6410,574,5304,77,77,0,77,0.15,0.20,0.02,0.20
2017-12-09 13:10:00,2,6622,77,0.11,2,2,0,2,5531,7751,726,6534,77,77,0,77,0.05,0.15,0.04,0.10
2017-12-09 13:20:00,2,8398,77,0.07,2,2,0,2,7314,9908,763,8256,77,77,0,77,0.05,0.10,0.03,0.08
2017-12-09 13:30:00,2,9121,77,0.08,2,2,0,2,8401,10406,530,9072,77,77,0,77,0.05,0.10,0.02,0.10
2017-12-09 13:40:00,2,7318,77,0.11,2,2,0,2,5169,10491,1615,6656,77,77,0,77,0.05,0.20,0.05,0.12
2017-12-09 13:50:00,2,6601,76,0.10,2,2,0,2,4156,9400,1800,6350,71,77,2,77,0.00,0.35,0.11,0.05
2017-12-09 14:00:00,2,4795,77,0.21,2,2,0,2,3513,6469,949,4500,77,77,0,77,0.05,0.40,0.11,0.17
2017-12-09 14:10:00,2,7755,76,0.07,2,2,0,2,5062,9480,1313,7961,71,77,2,77,0.05,0.15,0.03,0.05
2017-12-09 14:20:00,2,5490,77,0.15,2,2,0,2,4426,6243,588,5634,77,77,0,77,0.10,0.25,0.04,0.15
2017-12-09 14:30:00,2,4034,77,0.29,2,2,0,2,3223,5744,720,3906,77,77,0,77,0.15,0.40,0.07,0.30
2017-12-09 14:40:00,2,6778,77,0.14,2,2,0,2,4819,8708,1261,6472,77,77,0,77,0.05,0.25,0.06,0.12
2017-12-09 14:50:00,2,7416,77,0.11,2,2,0,2,6912,8036,415,7296,77,77,0,77,0.05,0.15,0.03,0.10
2017-12-09 15:00:00,2,7652,77,0.12,2,2,0,2,5721,10947,1941,6716,77,77,0,77,0.05,0.20,0.06,0.12
2017-12-09 15:10:00,2,12381,75,0.06,2,2,0,2,11048,15298,1358,11755,71,77,3,77,0.05,0.10,0.02,0.05
2017-12-09 15:20:00,2,13659,74,0.03,2,2,0,2,7812,18258,3356,14866,71,77,3,74,0.00,0.05,0.02,0.05
2017-12-09 15:30:00,2,11951,75,0.07,2,2,0,2,9945,13394,1161,12231,71,77,3,77,0.05,0.10,0.03,0.08
2017-12-09 15:40:00,2,13004,76,0.09,2,2,0,2,9299,15206,2233,14034,71,77,2,77,0.05,0.15,0.04,0.08
2017-12-09 15:50:00,2,13225,77,0.11,2,2,0,2,11454,15417,1285,13286,77,77,0,77,0.05,0.15,0.03,0.10
2017-12-09 16:00:00,2,11343,77,0.11,2,2,0,2,9890,14944,1418,10791,77,77,0,77,0.05,0.15,0.03,0.10
2017-12-09 16:10:00,2,7885,76,0.14,2,2,0,2,6334,9409,913,7856,71,77,2,77,0.05,0.25,0.06,0.15
2017-12-09 16:20:00,2,5862,71,0.24,2,2,0,2,4155,7039,973,5867,71,71,0,71,0.05,0.55,0.14,0.23
2017-12-09 16:30:00,2,6009,71,0.20,2,2,0,2,4502,8375,1243,5822,71,71,0,71,0.00,0.60,0.17,0.20
2017-12-09 16:40:00,2,7455,76,0.25,2,2,0,2,6696,8897,721,7180,71,77,2,77,0.10,0.55,0.14,0.20
2017-12-09 16:50:00,2,8617,77,0.28,2,2,0,2,7822,9559,604,8591,77,77,0,77,0.15,0.45,0.09,0.28
2017-12-09 17:00:00,2,10590,77,0.16,2,2,0,2,7941,14980,2023,10209,77,77,0,77,0.10,0.35,0.07,0.15
2017-12-09 17:10:00,2,13989,77,0.12,2,2,0,2,11594,19782,2483,13393,77,77,0,77,0.05,0.25,0.06,0.12
2017-12-09 17:20:00,2,13582,77,0.12,2,2,0,2,11228,16641,1568,13278,77,77,0,77,0.05,0.25,0.06,0.10
2017-12-09 17:30:00,2,16724,77,0.09,2,2,0,2,14881,18174,1208,17408,77,77,0,77,0.05,0.15,0.03,0.10
2017-12-09 17:40:00,2,16516,77,0.11,2,2,0,2,14273,18758,1248,16578,77,77,0,77,0.05,0.20,0.04,0.10
2017-12-09 17:50:00,2,19927,75,0.10,2,2,0,2,14846,34929,5609,18373,71,77,3,77,0.05,0.15,0.03,0.10
2017-12-09 18:00:00,2,14506,77,0.11,2,2,0,2,12633,17101,1295,14346,77,77,0,77,0.05,0.15,0.03,0.10
2017-12-09 18:10:00,2,12945,77,0.16,2,2,0,2,10010,16032,1768,13606,77,77,0,77,0.05,0.25,0.07,0.15
2017-12-09 18:20:00,2,11470,76,0.28,2,2,0,2,6749,14095,2070,12095,71,77,2,77,0.15,0.55,0.13,0.25
2017-12-09 18:30:00,2,12208,77,0.23,2,2,0,2,9221,15464,1699,12534,77,77,0,77,0.10,0.55,0.13,0.17
2017-12-09 18:40:00,2,13104,77,0.15,2,2,0,2,11019,14955,1332,12714,77,77,0,77,0.10,0.25,0.05,0.15
2017-12-09 18:50:00,2,14851,77,0.15,2,2,0,2,12043,21897,2879,13870,77,77,0,77,0.05,0.20,0.05,0.15
2017-12-09 19:00:00,2,14030,77,0.12,2,2,0,2,11359,16886,1927,14228,77,77,0,77,0.05,0.25,0.06,0.10
2017-12-09 19:10:00,2,13061,77,0.14,2,2,0,2,9859,17525,2454,12377,77,77,0,77,0.05,0.25,0.06,0.15
2017-12-09 19:20:00,2,11414,77,0.17,2,2,0,2,8605,14591,1723,11360,77,77,0,77,0.05,0.35,0.09,0.15
2017-12-09 19:30:00,2,9957,77,0.21,2,2,0,2,8850,11435,895,9824,77,77,0,77,0.15,0.30,0.04,0.20
2017-12-09 19:40:00,2,11451,77,0.15,2,2,0,2,9403,14263,1617,11248,77,77,0,77,0.05,0.25,0.06,0.15
2017-12-09 19:50:00,2,11888,77,0.14,2,2,0,2,9018,15256,1896,11958,77,77,0,77,0.05,0.25,0.07,0.15
2017-12-09 20:00:00,2,9922,76,0.21,2,2,0,2,6902,12035,1324,10123,71,77,2,77,0.10,0.45,0.10,0.20
2017-12-09 20:10:00,2,10671,73,0.10,2,2,0,2,8534,12461,1180,10803,71,77,3,71,0.05,0.15,0.03,0.10
2017-12-09 20:20:00,2,9610,74,0.11,2,2,0,2,7184,10868,1038,9968,71,77,3,74,0.05,0.30,0.07,0.10
2017-12-09 20:30:00,2,11193,74,0.06,2,2,0,2,7495,13962,1840,11416,71,77,3,74,0.05,0.10,0.02,0.05
2017-12-09 20:40:00,2,11586,77,0.06,2,2,0,2,9016,14523,1552,11517,77,77,0,77,0.00,0.10,0.03,0.05
2017-12-09 20:50:00,2,9911,77,0.06,2,2,0,2,7198,12713,1654,9556,77,77,0,77,0.00,0.10,0.03,0.05
2017-12-09 21:00:00,2,8485,78,0.05,2,2,0,2,6702,10502,1141,8626,77,78,0,78,0.00,0.10,0.02,0.05
2017-12-09 21:10:00,2,9467,78,0.03,2,2,0,2,7051,10636,1170,9834,78,78,0,78,0.00,0.10,0.03,0.03
2017-12-09 21:20:00,2,10445,78,0.02,2,2,0,2,6232,13400,2476,10809,78,78,0,78,0.00,0.05,0.02,0.00
2017-12-09 21:30:00,2,11018,78,0.04,2,2,0,2,5568,15302,2606,11588,78,78,0,78,0.00,0.10,0.03,0.05
2017-12-09 21:40:00,2,12009,75,0.03,2,2,0,2,6728,20064,3421,12071,71,78,3,77,0.00,0.10,0.03,0.00
2017-12-09 21:50:00,2,12967,76,0.03,2,2,0,2,6126,18042,4322,13558,71,78,3,78,0.00,0.15,0.05,0.00
2017-12-09 22:00:00,2,11655,78,0.03,2,2,0,2,7688,15322,2771,11588,77,78,0,78,0.00,0.05,0.03,0.03
2017-12-09 22:10:00,2,7767,74,0.07,2,2,0,2,5690,10272,1355,7866,71,78,3,71,0.05,0.25,0.06,0.05
2017-12-09 22:20:00,2,8123,76,0.04,2,2,0,2,4641,15307,3087,7478,71,77,2,77,0.00,0.10,0.04,0.05
2017-12-09 22:30:00,2,9340,75,0.09,2,2,0,2,6055,17251,3133,8081,71,77,3,77,0.00,0.40,0.12,0.05
2017-12-09 22:40:00,2,12884,77,0.03,2,2,0,2,7180,24052,5528,12061,77,77,0,77,0.00,0.05,0.03,0.03
2017-12-09 22:50:00,2,17459,78,0.00,2,2,0,2,11348,24587,4879,15736,77,78,0,78,0.00,0.00,0.00,0.00
2017-12-09 23:00:00,2,10272,77,0.07,2,2,0,2,7222,16778,2956,8920,77,77,0,77,0.00,0.20,0.06,0.05
2017-12-09 23:10:00,2,13640,77,0.00,2,2,0,2,7771,18067,3242,14138,77,77,0,77,0.00,0.00,0.00,0.00
2017-12-09 23:20:00,2,17463,77,0.02,2,2,0,2,10389,22436,3888,18296,77,77,0,77,0.00,0.10,0.03,0.00
2017-12-09 23:30:00,2,14152,77,0.05,2,2,0,2,7253,21384,5090,13625,77,77,0,77,0.00,0.15,0.05,0.05
2017-12-09 23:40:00,2,22389,77,0.00,2,2,0,2,17984,30679,3739,22582,77,77,0,77,0.00,0.00,0.00,0.00
2017-12-09 23:50:00,2,25653,77,0.00,2,2,0,2,18794,30021,3196,26194,77,77,0,77,0.00,0.00,0.00,0.00
